User: anonymous   Login
Location: Fort Wayne
(41.1310°N, 85.1290°W)
Time: 05:17:13
(UTC-04:00)
Language:

Cosmos 1953 - Orbit

View from above orbital plane
View from above orbital plane
View from above satellite
View from above satellite

Ground track
Ground track

The orbit data is extracted from the following two-line orbital elements,

1 19210U 88050A   17265.61104927 -.00000032 +00000-0 -42699-5 0  9997
2 19210 082.5152 298.9275 0011509 290.1582 069.8406 15.05354510571367
Epoch (UTC): 22 September 2017 14:39:54
Eccentricity: 0.0011509
inclination: 82.5152°
perigee height: 542 km
apogee height: 558 km
right ascension of ascending node: 298.9275°
argument of perigee: 290.1582°
revolutions per day: 15.05354510
mean anomaly at epoch: 69.8406°
orbit number at epoch: 57136

The dashed part of the orbit path shows where the satellite is in the earth's shadow,  

DLR